Location: Wildcat Hills Observatory
(41.6350°N, 103.6812°W)
Time: 15:34:27
(UTC-06:00)

Cosmos 1634 Rocket - Visible Passes

Search period start: 21 October 2014 00:00
Search period end: 31 October 2014 00:00
Orbit: 961 x 992 km, 82.9° (Epoch: 20 October)

Date Brightness Start Highest point End Pass type
(mag) Time Alt. Az. Time Alt. Az. Time Alt. Az.
21 Oct 6.8 04:55:36 10° ESE 04:59:17 17° E 05:02:59 10° NE visible
21 Oct 4.0 06:37:40 10° SSW 06:43:53 73° W 06:50:11 10° N visible
21 Oct 7.2 19:21:47 10° NW 19:24:15 13° WNW 19:26:43 10° WSW visible
22 Oct 5.9 05:19:11 10° SE 05:24:29 30° E 05:29:50 10° NNE visible
23 Oct 4.8 05:43:50 10° SSE 05:49:52 55° E 05:55:59 10° NNE visible
23 Oct 6.4 18:25:35 10° NNW 18:30:45 27° W 18:35:54 10° SW visible
24 Oct 6.9 04:27:54 10° ESE 04:30:57 14° E 04:34:00 10° NE visible
24 Oct 4.0 06:09:11 10° S 06:15:25 84° W 06:21:45 10° N visible
24 Oct 7.0 18:52:39 10° NW 18:55:56 15° W 18:59:13 10° WSW visible
25 Oct 6.1 04:51:05 10° SE 04:56:07 26° E 05:01:11 10° NNE visible
25 Oct 4.3 06:35:11 10° SSW 06:41:09 47° WNW 06:47:13 10° N visible
26 Oct 5.0 05:15:32 10° SSE 05:21:27 48° E 05:27:27 10° NNE visible
27 Oct 6.9 04:00:29 10° E 04:02:38 12° ENE 04:04:47 10° ENE visible
27 Oct 4.0 05:40:43 10° S 05:46:58 85° E 05:53:18 10° N visible
27 Oct 6.8 18:23:43 10° NW 18:27:36 17° W 18:31:29 10° WSW visible
28 Oct 6.2 04:23:03 10° SE 04:27:45 23° E 04:32:29 10° NE visible
28 Oct 4.1 06:06:33 10° SSW 06:12:39 54° WNW 06:18:51 10° N visible
29 Oct 5.2 04:47:16 10° SSE 04:53:03 41° E 04:58:54 10° NNE visible
29 Oct 4.7 06:33:06 10° SW 06:38:32 31° WNW 06:44:02 10° NNW visible
30 Oct 4.1 05:12:18 10° S 05:18:31 75° E 05:24:50 10° N visible
